TimeMST,TemperatureF,Dew PointF,Humidity,Sea Level PressureIn,VisibilityMPH,Wind Direction,Wind SpeedMPH,Gust SpeedMPH,PrecipitationIn,Events,Conditions,WindDirDegrees,DateUTC
12:15 AM,26.6,10.4,51,30.18,10.0,SSE,4.6,-,N/A,,Clear,150,2013-01-03 07:15:00
12:35 AM,24.8,10.4,54,30.18,10.0,South,4.6,-,N/A,,Clear,180,2013-01-03 07:35:00
12:55 AM,23.0,8.6,54,30.19,10.0,Calm,Calm,-,N/A,,Clear,0,2013-01-03 07:55:00
1:15 AM,19.4,8.6,63,30.19,10.0,SE,4.6,-,N/A,,Clear,140,2013-01-03 08:15:00
1:35 AM,21.2,10.4,63,30.19,10.0,ESE,4.6,-,N/A,,Clear,120,2013-01-03 08:35:00
1:55 AM,21.2,10.4,63,30.19,10.0,ESE,4.6,-,N/A,,Clear,110,2013-01-03 08:55:00
2:15 AM,19.4,10.4,68,30.19,10.0,SE,4.6,-,N/A,,Clear,130,2013-01-03 09:15:00
2:35 AM,17.6,8.6,68,30.20,10.0,Calm,Calm,-,N/A,,Clear,0,2013-01-03 09:35:00
2:55 AM,21.2,10.4,63,30.21,10.0,SSE,5.8,-,N/A,,Clear,160,2013-01-03 09:55:00
3:15 AM,19.4,10.4,68,30.21,10.0,ESE,4.6,-,N/A,,Clear,120,2013-01-03 10:15:00
3:35 AM,17.6,8.6,68,30.21,10.0,East,5.8,-,N/A,,Clear,90,2013-01-03 10:35:00
3:55 AM,17.6,8.6,68,30.21,10.0,ESE,4.6,-,N/A,,Clear,120,2013-01-03 10:55:00
4:15 AM,17.6,8.6,68,30.21,10.0,South,6.9,-,N/A,,Clear,170,2013-01-03 11:15:00
4:35 AM,15.8,8.6,73,30.22,10.0,SSW,3.5,-,N/A,,Clear,200,2013-01-03 11:35:00
4:55 AM,17.6,10.4,73,30.21,10.0,East,3.5,-,N/A,,Clear,100,2013-01-03 11:55:00
5:15 AM,17.6,8.6,68,30.21,10.0,East,3.5,-,N/A,,Clear,90,2013-01-03 12:15:00
5:35 AM,19.4,10.4,68,30.20,10.0,NE,5.8,-,N/A,,Clear,40,2013-01-03 12:35:00
5:55 AM,19.4,10.4,68,30.21,10.0,East,4.6,-,N/A,,Clear,90,2013-01-03 12:55:00
6:15 AM,19.4,14.0,80,30.22,10.0,SSE,4.6,-,N/A,,Scattered Clouds,160,2013-01-03 13:15:00
6:35 AM,23.0,12.2,63,30.23,10.0,South,4.6,-,N/A,,Mostly Cloudy,180,2013-01-03 13:35:00
6:55 AM,23.0,10.4,59,30.24,10.0,SW,4.6,-,N/A,,Mostly Cloudy,230,2013-01-03 13:55:00
7:15 AM,21.2,10.4,63,30.26,10.0,South,5.8,-,N/A,,Overcast,180,2013-01-03 14:15:00
7:35 AM,21.2,10.4,63,30.27,10.0,South,6.9,-,N/A,,Overcast,180,2013-01-03 14:35:00
7:55 AM,19.4,10.4,68,30.28,10.0,South,5.8,-,N/A,,Overcast,170,2013-01-03 14:55:00
8:15 AM,23.0,12.2,63,30.29,10.0,SSE,5.8,-,N/A,,Overcast,150,2013-01-03 15:15:00
8:35 AM,24.8,14.0,64,30.29,10.0,South,8.1,-,N/A,,Overcast,180,2013-01-03 15:35:00
8:55 AM,26.6,14.0,59,30.30,10.0,South,9.2,-,N/A,,Overcast,180,2013-01-03 15:55:00
9:15 AM,28.4,14.0,55,30.31,10.0,South,9.2,-,N/A,,Mostly Cloudy,170,2013-01-03 16:15:00
9:35 AM,28.4,14.0,55,30.31,10.0,South,11.5,-,N/A,,Overcast,180,2013-01-03 16:35:00
9:55 AM,30.2,14.0,51,30.32,10.0,SSW,10.4,-,N/A,,Overcast,200,2013-01-03 16:55:00
10:15 AM,30.2,14.0,51,30.32,10.0,South,8.1,-,N/A,,Overcast,190,2013-01-03 17:15:00
10:35 AM,32.0,15.8,51,30.32,10.0,SW,5.8,-,N/A,,Overcast,220,2013-01-03 17:35:00
10:55 AM,32.0,15.8,51,30.32,10.0,WSW,5.8,-,N/A,,Mostly Cloudy,250,2013-01-03 17:55:00
11:15 AM,32.0,17.6,55,30.31,10.0,West,3.5,-,N/A,,Overcast,280,2013-01-03 18:15:00
11:35 AM,32.0,19.4,60,30.30,10.0,Calm,Calm,-,N/A,,Mostly Cloudy,0,2013-01-03 18:35:00
11:55 AM,33.8,19.4,56,30.29,10.0,WNW,5.8,-,N/A,,Mostly Cloudy,290,2013-01-03 18:55:00
12:15 PM,33.8,19.4,56,30.28,10.0,Calm,Calm,-,N/A,,Overcast,0,2013-01-03 19:15:00
12:35 PM,33.8,17.6,52,30.27,10.0,Calm,Calm,-,N/A,,Mostly Cloudy,0,2013-01-03 19:35:00
12:55 PM,33.8,17.6,52,30.27,10.0,West,3.5,-,N/A,,Mostly Cloudy,260,2013-01-03 19:55:00
1:15 PM,35.6,19.4,52,30.26,10.0,WSW,3.5,-,N/A,,Overcast,240,2013-01-03 20:15:00
1:35 PM,33.8,19.4,56,30.26,10.0,Calm,Calm,-,N/A,,Overcast,0,2013-01-03 20:35:00
1:55 PM,35.6,19.4,52,30.26,10.0,WSW,8.1,-,N/A,,Overcast,250,2013-01-03 20:55:00
2:15 PM,33.8,21.2,60,30.27,10.0,SW,5.8,-,N/A,,Overcast,220,2013-01-03 21:15:00
2:35 PM,33.8,23.0,65,30.27,9.0,West,3.5,-,N/A,,Overcast,260,2013-01-03 21:35:00
2:55 PM,32.0,23.0,69,30.27,8.0,West,6.9,-,N/A,,Overcast,280,2013-01-03 21:55:00
3:15 PM,32.0,23.0,69,30.27,10.0,NW,4.6,-,N/A,,Mostly Cloudy,320,2013-01-03 22:15:00
3:35 PM,32.0,24.8,75,30.27,10.0,WNW,6.9,-,N/A,,Mostly Cloudy,300,2013-01-03 22:35:00
3:55 PM,32.0,24.8,75,30.26,10.0,WNW,5.8,-,N/A,,Mostly Cloudy,300,2013-01-03 22:55:00
4:15 PM,32.0,23.0,69,30.27,10.0,WNW,5.8,-,N/A,,Mostly Cloudy,290,2013-01-03 23:15:00
4:35 PM,32.0,23.0,69,30.28,7.0,SSW,5.8,-,N/A,,Overcast,210,2013-01-03 23:35:00
4:55 PM,32.0,26.6,80,30.28,2.0,SSW,5.8,-,N/A,,Overcast,200,2013-01-03 23:55:00
5:15 PM,30.2,26.6,86,30.28,1.0,SW,3.5,-,N/A,Snow,Light Snow,230,2013-01-04 00:15:00
5:35 PM,28.4,26.6,93,30.28,2.0,Calm,Calm,-,N/A,Snow,Light Snow,0,2013-01-04 00:35:00
5:55 PM,28.4,26.6,93,30.29,2.5,Calm,Calm,-,N/A,Snow,Light Snow,0,2013-01-04 00:55:00
6:15 PM,28.4,26.6,93,30.30,3.0,SE,5.8,-,N/A,Snow,Light Snow,130,2013-01-04 01:15:00
6:35 PM,28.4,26.6,93,30.30,6.0,SW,3.5,-,N/A,,Overcast,220,2013-01-04 01:35:00
6:55 PM,28.4,28.4,100,30.30,4.0,South,3.5,-,N/A,,Overcast,180,2013-01-04 01:55:00
7:15 PM,28.4,28.4,100,30.31,4.0,SSW,4.6,-,N/A,,Overcast,200,2013-01-04 02:15:00
7:35 PM,28.4,28.4,100,30.32,2.5,South,4.6,-,N/A,Snow,Light Snow,190,2013-01-04 02:35:00
7:55 PM,28.4,26.6,93,30.32,5.0,SSW,4.6,-,N/A,,Overcast,200,2013-01-04 02:55:00
8:15 PM,28.4,26.6,93,30.31,3.0,WSW,3.5,-,N/A,,Overcast,250,2013-01-04 03:15:00
8:35 PM,28.4,26.6,93,30.31,4.0,Calm,Calm,-,N/A,,Overcast,0,2013-01-04 03:35:00
8:55 PM,28.4,28.4,100,30.32,3.0,Calm,Calm,-,N/A,,Overcast,0,2013-01-04 03:55:00
9:15 PM,28.4,28.4,100,30.32,2.0,Calm,Calm,-,N/A,Snow,Light Snow,0,2013-01-04 04:15:00
9:35 PM,28.4,28.4,100,30.33,2.5,Calm,Calm,-,N/A,Snow,Light Snow,0,2013-01-04 04:35:00
9:55 PM,28.4,28.4,100,30.33,2.5,Calm,Calm,-,N/A,Snow,Light Snow,0,2013-01-04 04:55:00
10:15 PM,28.4,28.4,100,30.34,1.8,Calm,Calm,-,N/A,Snow,Light Snow,0,2013-01-04 05:15:00
10:35 PM,28.4,28.4,100,30.34,2.5,Calm,Calm,-,N/A,Snow,Light Snow,0,2013-01-04 05:35:00
11:15 PM,28.4,28.4,100,30.34,2.5,Calm,Calm,-,N/A,Snow,Light Snow,0,2013-01-04 06:15:00
11:35 PM,28.4,28.4,100,30.34,3.0,Calm,Calm,-,N/A,Snow,Light Snow,0,2013-01-04 06:35:00
11:55 PM,28.4,28.4,100,30.33,3.0,Calm,Calm,-,N/A,Snow,Light Snow,0,2013-01-04 06:55:00